FW1524 Weather Reports


time (UTC)temp
F
wind
direction
speed
knots
gust
knots
rain 1hr
in
rain 24hr
in
rain mn
in
humidity
%
barometer
mb
20260831043048 68 224 0.0 0.0 0.00 0.00 0.00 1 1018.6
20260831041552 67 224 0.0 0.0 0.00 0.00 0.00 1 1018.6
20260831040039 68 224 0.0 0.0 0.00 0.00 0.00 1 1018.6
20260831034540 67 224 0.0 0.0 0.00 0.00 0.00 1 1018.6
20260831033038 66 224 0.0 0.0 0.00 0.00 0.00 1 1018.6
20260831031531 67 224 0.0 0.0 0.00 0.00 0.00 1 1018.7
20260831030027 67 224 0.0 0.0 0.00 0.00 0.00 1 1018.6
20260831024523 68 224 0.0 0.0 0.00 0.00 0.00 1 1018.7
20260831023023 67 224 0.0 0.0 0.00 0.00 0.00 1 1018.7
20260831021512 68 224 0.0 0.0 0.00 0.00 0.00 1 1018.8
20260831020007 68 224 0.0 0.0 0.00 0.00 0.00 1 1018.6
20260831014504 68 215 0.0 0.0 0.00 0.00 0.00 1 1018.6
20260831013101 68 220 0.0 0.0 0.00 0.00 0.00 1 1018.5
20260831011557 67 236 0.0 0.0 0.00 0.00 0.00 1 1018.5
20260831010052 67 159 0.0 0.0 0.00 0.00 0.00 1 1018.3
20260831004553 67 159 0.0 0.0 0.00 0.00 0.00 1 1018.2
20260831003051 68 159 0.0 0.0 0.00 0.00 0.00 1 1017.9
20260831001544 68 159 0.0 0.0 0.00 0.00 0.00 1 1017.7
20260831000039 68 159 0.0 0.0 0.00 0.00 0.00 1 1017.5
20260830234553 69 159 0.0 0.0 0.00 0.00 0.00 1 1017.3
20260830233034 69 159 0.0 0.0 0.00 0.00 0.00 1 1017.3
20260830231530 70 159 0.0 0.0 0.00 0.00 0.00 1 1017.3
20260830230025 69 159 0.0 0.0 0.00 0.00 0.00 1 1017.3
20260830224520 70 159 0.0 0.0 0.00 0.00 0.00 1 1017.3
20260830223017 71 159 0.0 0.0 0.00 0.00 0.00 1 1017.1
20260830221512 71 159 0.0 0.0 0.00 0.00 0.00 1 1017.2
20260830220017 72 159 0.0 0.0 0.00 0.00 0.00 1 1017.1
20260830214512 72 159 0.0 0.0 0.00 0.00 0.00 1 1017.1
20260830213010 72 159 0.0 0.0 0.00 0.00 0.00 1 1017.2
20260830211503 72 159 0.0 0.0 0.00 0.00 0.00 1 1017.3
20260830210100 72 158 0.0 0.0 0.00 0.00 0.00 1 1017.3
20260830204555 73 64 0.0 0.0 0.00 0.00 0.00 1 1017.2
20260830203053 73 63 0.0 0.0 0.00 0.00 0.00 1 1017.2
20260830201548 73 20 0.0 0.0 0.00 0.00 0.00 1 1017.0
20260830200041 74 19 0.0 1.7 0.00 0.00 0.00 16 1016.9
20260830194541 76 5 0.0 2.6 0.00 0.00 0.00 1 1017.0
20260830193048 78 167 0.0 0.0 0.00 0.00 0.00 1 1016.8
20260830191533 78 162 0.0 0.0 0.00 0.00 0.00 12 1016.6
20260830190030 79 167 0.0 0.0 0.00 0.00 0.00 29 1016.7
20260830184531 79 170 0.0 0.0 0.00 0.00 0.00 8 1016.6
20260830183023 80 184 0.0 0.0 0.00 0.00 0.00 15 1016.7
20260830181516 80 208 0.0 0.9 0.00 0.00 0.00 7 1017.0
20260830180017 86 196 0.0 0.0 0.00 0.00 0.00 1 1017.0
20260830174513 88 200 0.0 0.0 0.00 0.00 0.00 1 1017.1
20260830173005 80 201 0.0 0.0 0.00 0.00 0.00 37 1017.4
20260830171502 85 186 0.0 0.9 0.00 0.00 0.00 1 1017.3
20260830170057 80 166 0.0 0.0 0.00 0.00 0.00 1 1017.4
20260830164553 78 225 0.0 0.0 0.00 0.00 0.00 1 1017.6
20260830163048 80 225 0.0 1.7 0.00 0.00 0.00 1 1017.8
20260830161544 79 202 0.0 0.0 0.00 0.00 0.00 1 1018.2
20260830160039 80 51 0.0 0.0 0.00 0.00 0.00 1 1018.2
20260830154538 75 256 0.0 0.0 0.00 0.00 0.00 1 1018.4
20260830153033 76 251 0.0 0.0 0.00 0.00 0.00 1 1018.6
20260830151528 71 34 0.0 0.0 0.00 0.00 0.00 1 1018.7
20260830150026 70 117 0.0 0.0 0.00 0.00 0.00 1 1018.8
20260830144533 69 115 0.0 0.0 0.00 0.00 0.00 1 1018.9
20260830143029 68 115 0.0 0.0 0.00 0.00 0.00 1 1018.8
20260830141515 68 114 0.0 0.0 0.00 0.00 0.00 1 1018.6
20260830140010 66 186 0.0 0.0 0.00 0.00 0.00 1 1018.8
20260830134510 64 196 0.0 0.0 0.00 0.00 0.00 1 1018.9
20260830133004 64 199 0.0 0.0 0.00 0.00 0.00 1 1019.0
20260830131601 63 223 0.0 0.0 0.00 0.00 0.00 1 1019.2
20260830130056 62 223 0.0 0.0 0.00 0.00 0.00 1 1019.4
20260830124555 62 229 0.0 0.0 0.00 0.00 0.00 1 1019.4
20260830123053 61 232 0.0 0.0 0.00 0.00 0.00 1 1019.4
20260830121548 60 232 0.0 0.0 0.00 0.00 0.00 1 1019.5
20260830120044 60 232 0.0 0.0 0.00 0.00 0.00 1 1019.5
20260830114604 59 232 0.0 0.0 0.00 0.00 0.00 1 1019.7
20260830113040 59 232 0.0 0.0 0.00 0.00 0.00 1 1019.9
20260830111536 58 232 0.0 0.0 0.00 0.00 0.00 1 1020.0
20260830110036 58 232 0.0 0.0 0.00 0.00 0.00 1 1020.0
20260830104518 57 232 0.0 0.0 0.00 0.00 0.00 1 1019.9
20260830103014 57 232 0.0 0.0 0.00 0.00 0.00 1 1019.9
20260830101510 58 232 0.0 0.0 0.00 0.00 0.00 1 1019.9
20260830100023 58 232 0.0 0.0 0.00 0.00 0.00 1 1019.9
20260830094504 57 232 0.0 0.0 0.00 0.00 0.00 1 1020.1
20260830093105 58 232 0.0 0.0 0.00 0.00 0.00 1 1020.3
20260830091555 58 232 0.0 0.0 0.00 0.00 0.00 1 1020.3
20260830090053 58 232 0.0 0.0 0.00 0.00 0.00 1 1020.3
20260830084548 58 232 0.0 0.0 0.00 0.00 0.00 1 1020.3
20260830083044 58 232 0.0 0.0 0.00 0.00 0.00 1 1020.4
20260830081540 58 232 0.0 0.0 0.00 0.00 0.00 1 1020.5
20260830080036 59 232 0.0 0.0 0.00 0.00 0.00 1 1020.7
20260830074533 59 232 0.0 0.0 0.00 0.00 0.00 1 1020.6
20260830073032 59 232 0.0 0.0 0.00 0.00 0.00 1 1020.7
20260830071535 58 232 0.0 0.0 0.00 0.00 0.00 1 1020.7
20260830070022 59 232 0.0 0.0 0.00 0.00 0.00 1 1020.7
20260830064522 59 232 0.0 0.0 0.00 0.00 0.00 1 1020.6
20260830063014 58 232 0.0 0.0 0.00 0.00 0.00 1 1020.6
20260830061512 58 232 0.0 0.0 0.00 0.00 0.00 1 1020.6
20260830060005 59 232 0.0 0.0 0.00 0.00 0.00 1 1020.6
20260830054503 58 232 0.0 0.0 0.00 0.00 0.00 1 1020.6
20260830053058 58 232 0.0 0.0 0.00 0.00 0.00 1 1020.5
20260830051556 58 232 0.0 0.0 0.00 0.00 0.00 1 1020.7
20260830050050 58 232 0.0 0.0 0.00 0.00 0.00 1 1020.7
20260830044619 59 232 0.0 0.0 0.00 0.00 0.00 1 1020.9